Weather in Pokrovo-Vasilyevka

Russia / Tambov Oblast     53°24′06″N   41°01′46″E
temp.,
°C
wind,
m/s
gust,
m/s
humid.,
%
clouds,
%
prec.,
mm/h
press.,
hPa
HPBL,
m
28 september, tue
tue2800:00+8nne5886100 0.4 10201035
03:00+6nne5890100 0.5 1022571
06:00+5ne5788100 0.1 1024859
09:00+6ne5886100 0.2 1025904
12:00+6ne6774100 0.1 10271091
15:00+6ene6768100 0.1 10281271
18:00+7ne3865100 0.0 1030506
21:00+4nne35785 0.0 103197
29 september, wed
wed2900:00+3ne35785 0.0 103297
03:00+2nne348082 0.0 103373
06:00+2n3682100 0.0 1033125
09:00+5nne466597 0.0 1034364
12:00+9ne45495 0.0 10331076
15:00+11nne45435 0.0 10321324
18:00+7nne33595 0.0 103333
21:00+5nne33685 0.0 103343
30 september, thu
thu3000:00+5nne2371100 0.0 103442
03:00+4nne22775 0.0 103426
06:00+3nne33825 0.0 103539
09:00+7nne34665 0.0 1035290
12:00+11ne23535 0.0 1035985
15:00+12nne234911 0.0 10341367
18:00+9n11615 0.0 103411
21:00+8nnw227198 0.0 103519
1 october, fri
fri100:00+7nnw227928 0.0 103519
03:00+7nw2284100 0.0 103525
06:00+8nw2478100 0.0 1035102
09:00+9nw3474100 0.0 1035235
12:00+12nw3465100 0.0 1035555
15:00+14nw335710 0.0 10341000
18:00+12nw226689 0.0 103420
21:00+11nw236969 0.0 103451
2 october, sat
sat200:00+9nw237461 0.0 103543
03:00+8nw237564 0.0 103549
06:00+8nw227741 0.0 103537
09:00+11nw226633 0.0 1035209
12:00+14w125416 0.0 1034892
15:00+15sw225389 0.0 10341395
18:00+13ssw3464100 0.0 1034117
21:00+12s2366100 0.0 103479